Total_Precipitation_Accumulation
1.65 2.03 2.61 3.49 4.57 5.47 5.76 5.23 4.69 4.33 3.88 3.45 2.89 2.50 2.40 2.28 2.04 1.78 1.48 1.32 1.22 1.27 1.28 1.12 1.16 1.06 1.09 1.12 1.11 1.20 1.23 1.21 1.27 1.46 1.46 1.24 1.05 1.05 1.03 1.07 1.21 1.14 1.14
1.82 2.46 3.47 4.12 4.39 4.52 4.28 3.93 3.65 3.42 2.96 2.54 2.27 2.03 1.97 1.80 1.63 1.53 1.44 1.15 1.02 1.04 0.99 1.05 1.02 0.98 1.09 1.11 1.08 1.09 1.09 1.06 1.10 1.26 1.44 1.27 1.13 0.93 0.73 0.87 0.87 0.92 1.15
1.97 2.77 3.35 3.48 3.22 2.92 2.82 2.77 2.81 2.56 2.41 2.31 2.20 2.08 2.02 1.80 1.56 1.41 1.30 1.06 0.92 0.91 0.89 0.87 0.93 1.00 0.96 1.05 1.08 0.97 1.01 1.05 1.01 1.01 1.26 1.31 1.22 1.01 0.74 0.68 0.76 0.87 1.00
1.49 1.93 2.18 2.08 2.21 2.34 2.34 2.44 2.53 2.28 2.25 2.17 1.85 1.72 1.60 1.45 1.30 1.23 1.22 1.26 1.06 0.92 0.86 0.80 0.80 0.86 0.83 1.01 0.89 0.92 0.99 1.03 0.92 0.86 0.87 0.99 1.06 1.13 0.98 0.78 0.71 0.80 0.90
0.92 1.03 1.16 1.30 1.51 1.62 1.78 2.07 2.30 2.25 2.08 1.90 1.77 1.75 1.61 1.52 1.49 1.51 1.46 1.40 1.27 1.06 0.92 0.90 0.84 0.84 0.80 0.87 0.85 1.04 1.02 0.96 0.89 0.87 0.87 0.91 0.88 0.86 0.94 0.87 0.77 0.75 0.65
0.79 0.82 0.86 0.99 1.17 1.30 1.45 1.70 2.00 2.13 2.05 1.88 1.75 1.70 1.68 1.61 1.52 1.50 1.44 1.28 1.18 1.11 1.01 0.98 0.97 0.89 0.84 0.83 0.81 0.94 0.99 1.03 1.03 0.97 0.88 0.93 0.89 0.86 0.93 0.81 0.69 0.68 0.51
0.77 0.83 0.80 0.76 0.83 0.99 1.15 1.23 1.40 1.65 1.76 1.72 1.67 1.63 1.70 1.57 1.39 1.30 1.21 1.16 1.01 0.93 0.92 0.90 0.90 0.80 0.81 0.88 0.95 0.94 0.95 0.99 1.03 0.98 0.91 0.88 0.79 0.85 0.88 0.80 0.67 0.68 0.57
0.59 0.66 0.67 0.62 0.60 0.69 0.88 0.99 1.17 1.34 1.53 1.53 1.49 1.45 1.49 1.42 1.32 1.31 1.09 0.99 0.95 0.90 0.91 0.91 0.84 0.81 0.84 0.85 1.00 0.88 0.83 0.88 0.90 0.81 0.99 0.97 0.77 0.85 0.87 0.91 1.00 0.91 0.84
0.40 0.51 0.59 0.63 0.62 0.62 0.74 0.85 1.05 1.22 1.39 1.50 1.51 1.42 1.42 1.42 1.39 1.32 1.14 0.99 1.04 0.99 1.05 1.00 0.90 0.90 0.96 0.99 1.04 0.91 0.87 0.94 0.88 0.89 1.05 1.03 0.93 0.94 0.91 1.00 1.15 1.24 1.09
0.32 0.44 0.56 0.59 0.53 0.46 0.53 0.68 0.84 1.06 1.20 1.36 1.39 1.29 1.44 1.41 1.39 1.31 1.19 1.05 1.01 0.99 1.08 1.05 0.95 0.93 0.96 1.00 1.05 0.95 0.97 0.99 0.97 1.02 1.12 1.13 1.07 1.08 1.04 1.05 1.15 1.33 1.32
0.30 0.39 0.45 0.49 0.45 0.38 0.40 0.49 0.66 0.83 0.93 1.03 1.15 1.15 1.22 1.19 1.18 1.20 1.19 1.13 1.09 1.05 1.03 1.03 1.01 0.97 1.00 1.06 1.10 1.05 1.04 0.99 1.02 1.02 1.05 1.06 1.15 1.22 1.22 1.28 1.30 1.34 1.49
0.39 0.35 0.32 0.40 0.49 0.39 0.33 0.39 0.52 0.66 0.74 0.81 0.85 0.91 0.99 1.03 1.00 0.99 1.08 1.15 1.10 1.03 1.05 1.06 1.00 0.90 0.95 1.08 1.12 1.06 1.08 1.07 1.02 1.05 1.15 1.11 1.14 1.25 1.31 1.45 1.43 1.48 1.69
0.28 0.27 0.28 0.35 0.46 0.39 0.34 0.40 0.48 0.56 0.65 0.67 0.72 0.80 0.86 0.87 0.86 0.89 0.99 1.08 1.12 1.13 1.09 1.06 0.98 0.93 0.93 0.98 1.03 1.09 1.17 1.19 1.20 1.23 1.27 1.27 1.38 1.37 1.41 1.48 1.47 1.53 1.73
0.21 0.20 0.25 0.33 0.40 0.38 0.34 0.37 0.47 0.62 0.66 0.68 0.81 0.92 0.96 0.95 0.95 0.94 0.99 1.07 1.16 1.18 1.21 1.21 1.22 1.21 1.13 1.10 1.11 1.16 1.19 1.22 1.26 1.35 1.37 1.38 1.46 1.52 1.59 1.61 1.71 1.82 1.98
0.27 0.25 0.28 0.42 0.48 0.49 0.46 0.46 0.52 0.65 0.76 0.84 0.97 1.14 1.28 1.30 1.20 1.16 1.20 1.27 1.34 1.40 1.54 1.53 1.47 1.44 1.37 1.23 1.27 1.28 1.24 1.33 1.27 1.32 1.36 1.33 1.38 1.45 1.57 1.59 1.75 1.95 2.14
0.32 0.30 0.39 0.50 0.49 0.46 0.46 0.47 0.53 0.61 0.66 0.75 0.85 1.01 1.19 1.28 1.25 1.23 1.33 1.44 1.50 1.62 1.68 1.62 1.57 1.55 1.34 1.41 1.42 1.37 1.43 1.47 1.44 1.44 1.46 1.39 1.34 1.33 1.38 1.46 1.58 1.73 1.92
0.29 0.29 0.36 0.41 0.47 0.42 0.40 0.42 0.47 0.60 0.71 0.84 0.95 1.02 1.15 1.24 1.28 1.29 1.39 1.49 1.52 1.53 1.58 1.56 1.50 1.42 1.39 1.35 1.24 1.24 1.26 1.37 1.42 1.43 1.44 1.29 1.16 1.20 1.15 1.23 1.28 1.31 1.41
0.47 0.50 0.57 0.58 0.54 0.51 0.51 0.57 0.61 0.71 0.78 0.85 0.94 1.00 1.11 1.23 1.35 1.50 1.60 1.66 1.71 1.71 1.69 1.61 1.55 1.54 1.45 1.30 1.15 1.15 1.11 1.19 1.23 1.25 1.28 1.27 1.16 1.12 1.15 1.15 1.11 1.03 1.04
0.49 0.58 0.66 0.71 0.65 0.67 0.67 0.75 0.81 0.90 0.96 0.98 1.06 1.13 1.21 1.34 1.43 1.51 1.64 1.74 1.82 1.79 1.77 1.75 1.76 1.77 1.73 1.58 1.31 1.22 1.19 1.28 1.28 1.27 1.27 1.28 1.18 1.18 1.07 1.05 1.04 0.98 0.94
0.61 0.67 0.68 0.69 0.77 0.81 0.83 0.90 0.98 1.08 1.14 1.13 1.16 1.21 1.37 1.45 1.46 1.47 1.55 1.59 1.64 1.67 1.69 1.66 1.71 1.71 1.74 1.75 1.41 1.20 1.09 1.18 1.22 1.28 1.29 1.29 1.17 1.18 1.09 1.10 1.13 1.05 0.96
0.77 0.75 0.74 0.78 0.81 0.81 0.83 0.92 1.03 1.14 1.19 1.20 1.20 1.26 1.35 1.50 1.53 1.56 1.53 1.47 1.47 1.51 1.57 1.59 1.63 1.67 1.69 1.64 1.29 1.14 1.11 1.20 1.25 1.22 1.19 1.23 1.19 1.05 0.96 0.92 0.94 0.98 0.96
0.87 0.85 0.82 0.79 0.79 0.84 0.88 0.95 1.06 1.10 1.11 1.10 1.13 1.19 1.22 1.22 1.27 1.42 1.47 1.46 1.45 1.47 1.52 1.60 1.60 1.59 1.57 1.46 1.20 0.96 0.94 1.04 1.10 1.11 1.11 1.13 1.09 0.94 0.83 0.74 0.73 0.75 0.73
0.82 0.83 0.85 0.85 0.84 0.88 0.94 1.05 1.08 1.08 1.07 1.11 1.18 1.22 1.24 1.27 1.30 1.34 1.37 1.34 1.29 1.23 1.23 1.34 1.42 1.43 1.45 1.39 1.15 0.93 0.84 0.87 0.90 0.99 1.16 1.15 1.02 0.94 0.87 0.80 0.71 0.65 0.61
0.82 0.84 0.84 0.87 0.96 1.01 1.08 1.06 1.01 1.03 1.11 1.13 1.12 1.13 1.18 1.18 1.21 1.31 1.29 1.23 1.17 1.10 1.08 1.24 1.36 1.44 1.45 1.38 1.21 1.05 0.96 0.95 0.95 1.00 1.14 1.19 1.16 1.09 1.00 0.90 0.73 0.59 0.57
0.76 0.78 0.84 0.90 0.98 1.00 1.05 1.12 1.10 1.06 1.08 1.04 1.00 1.07 1.11 1.06 1.01 1.11 1.18 1.08 1.06 1.09 1.11 1.27 1.49 1.53 1.45 1.33 1.16 1.03 1.03 1.03 1.09 1.12 1.26 1.38 1.39 1.36 1.25 1.08 0.92 0.79 0.75
0.73 0.80 0.83 0.89 0.96 0.98 1.00 1.00 1.01 1.04 1.09 1.12 1.06 1.00 0.98 0.97 0.99 1.04 1.06 1.04 0.91 0.90 0.88 0.95 1.07 1.20 1.16 1.05 0.94 0.87 0.86 0.84 0.86 0.92 1.13 1.40 1.47 1.48 1.45 1.34 1.16 1.01 0.93